| time (UTC) | temp F | wind direction | speed knots | gust knots | rain 1hr in | rain 24hr in | rain mn in | humidity % | barometer mb |
| 20260905211411 | 65 | 351 | 1.7 | 2.6 | 0.00 | 0.02 | 0.02 | 56 | 1024.8 |
| 20260905210227 | 65 | 336 | 3.5 | 4.3 | 0.00 | 0.02 | 0.02 | 56 | 1024.6 |
| 20260905205251 | 64 | 293 | 2.6 | 2.6 | 0.00 | 0.02 | 0.02 | 58 | 1024.8 |
| 20260905204211 | 64 | 297 | 2.6 | 2.6 | 0.00 | 0.02 | 0.02 | 57 | 1024.6 |
| 20260905203027 | 64 | 285 | 1.7 | 1.7 | 0.00 | 0.02 | 0.02 | 57 | 1024.4 |
| 20260905202051 | 64 | 285 | 2.6 | 2.6 | 0.00 | 0.02 | 0.02 | 55 | 1024.4 |
| 20260905201011 | 66 | 333 | 2.6 | 2.6 | 0.00 | 0.02 | 0.02 | 53 | 1024.4 |
| 20260905195827 | 66 | 316 | 2.6 | 2.6 | 0.00 | 0.02 | 0.02 | 53 | 1024.4 |
| 20260905194851 | 66 | 341 | 3.5 | 4.3 | 0.00 | 0.02 | 0.02 | 53 | 1024.4 |
| 20260905193831 | 66 | 337 | 1.7 | 1.7 | 0.00 | 0.02 | 0.02 | 52 | 1024.0 |
| 20260905192627 | 66 | 343 | 0.0 | 0.0 | 0.00 | 0.02 | 0.02 | 52 | 1024.1 |
| 20260905191651 | 67 | 24 | 0.9 | 0.9 | 0.00 | 0.02 | 0.02 | 51 | 1023.9 |
| 20260905190611 | 66 | 349 | 2.6 | 2.6 | 0.00 | 0.02 | 0.02 | 50 | 1023.7 |
| 20260905185428 | 66 | 348 | 0.0 | 0.0 | 0.00 | 0.02 | 0.02 | 50 | 1023.7 |
| 20260905184451 | 67 | 12 | 2.6 | 2.6 | 0.00 | 0.02 | 0.02 | 49 | 1023.6 |
| 20260905183413 | 67 | 350 | 0.0 | 0.9 | 0.00 | 0.02 | 0.02 | 48 | 1023.6 |
| 20260905182227 | 69 | 263 | 3.5 | 4.3 | 0.00 | 0.02 | 0.02 | 46 | 1023.3 |
| 20260905181251 | 69 | 272 | 5.2 | 5.2 | 0.00 | 0.02 | 0.02 | 45 | 1023.1 |
| 20260905180211 | 69 | 246 | 7.8 | 9.6 | 0.00 | 0.02 | 0.02 | 45 | 1023.3 |
| 20260905175027 | 70 | 272 | 5.2 | 6.1 | 0.00 | 0.02 | 0.02 | 45 | 1023.1 |
| 20260905174051 | 70 | 260 | 7.0 | 9.6 | 0.00 | 0.02 | 0.02 | 44 | 1022.8 |
| 20260905173011 | 71 | 243 | 8.7 | 9.6 | 0.00 | 0.02 | 0.02 | 43 | 1022.7 |
| 20260905171812 | 71 | 280 | 7.0 | 8.7 | 0.00 | 0.02 | 0.02 | 44 | 1022.5 |
| 20260905170628 | 71 | 277 | 5.2 | 7.0 | 0.00 | 0.02 | 0.02 | 44 | 1022.5 |
| 20260905165654 | 71 | 276 | 7.8 | 8.7 | 0.00 | 0.02 | 0.02 | 43 | 1022.2 |
| 20260905164613 | 72 | 250 | 8.7 | 9.6 | 0.00 | 0.02 | 0.02 | 43 | 1022.2 |
| 20260905163428 | 72 | 272 | 5.2 | 6.1 | 0.00 | 0.02 | 0.02 | 43 | 1022.1 |
| 20260905162452 | 73 | 268 | 8.7 | 11.3 | 0.00 | 0.02 | 0.02 | 42 | 1021.9 |
| 20260905161412 | 73 | 351 | 4.3 | 5.2 | 0.00 | 0.02 | 0.02 | 42 | 1022.0 |
| 20260905160228 | 74 | 266 | 5.2 | 6.1 | 0.00 | 0.02 | 0.02 | 41 | 1021.8 |
| 20260905155252 | 74 | 266 | 4.3 | 6.1 | 0.00 | 0.02 | 0.02 | 42 | 1021.5 |
| 20260905154212 | 74 | 213 | 7.8 | 9.6 | 0.00 | 0.02 | 0.02 | 43 | 1021.4 |
| 20260905153303 | 74 | 265 | 8.7 | 9.6 | 0.00 | 0.02 | 0.02 | 43 | 1021.4 |
| 20260905152246 | 74 | 326 | 9.6 | 13.0 | 0.00 | 0.02 | 0.02 | 43 | 1021.4 |
| 20260905151252 | 74 | 270 | 12.2 | 15.6 | 0.00 | 0.02 | 0.02 | 43 | 1021.7 |
| 20260905150234 | 74 | 270 | 7.0 | 7.8 | 0.00 | 0.02 | 0.02 | 45 | 1021.4 |
| 20260905145220 | 74 | 311 | 7.8 | 8.7 | 0.00 | 0.02 | 0.02 | 46 | 1021.6 |
| 20260905144255 | 73 | 262 | 3.5 | 4.3 | 0.00 | 0.02 | 0.02 | 49 | 1021.8 |
| 20260905143312 | 73 | 257 | 11.3 | 13.9 | 0.00 | 0.02 | 0.02 | 49 | 1021.7 |
| 20260905142213 | 74 | 280 | 7.0 | 9.6 | 0.00 | 0.02 | 0.02 | 49 | 1021.8 |
| 20260905141132 | 73 | 233 | 12.2 | 13.0 | 0.00 | 0.02 | 0.02 | 48 | 1021.9 |
| 20260905140157 | 73 | 311 | 7.8 | 8.7 | 0.00 | 0.02 | 0.02 | 49 | 1022.0 |
| 20260905135138 | 73 | 276 | 5.2 | 7.8 | 0.00 | 0.02 | 0.02 | 49 | 1021.9 |
| 20260905134156 | 74 | 297 | 6.1 | 7.0 | 0.00 | 0.02 | 0.02 | 49 | 1021.9 |
| 20260905133054 | 73 | 295 | 7.0 | 8.7 | 0.00 | 0.02 | 0.02 | 50 | 1021.9 |
| 20260905131901 | 73 | 341 | 4.3 | 5.2 | 0.00 | 0.02 | 0.02 | 52 | 1021.9 |
| 20260905130901 | 72 | 251 | 5.2 | 7.8 | 0.00 | 0.02 | 0.02 | 52 | 1022.0 |
| 20260905125900 | 71 | 6 | 5.2 | 6.1 | 0.00 | 0.02 | 0.02 | 54 | 1022.1 |
| 20260905124842 | 71 | 279 | 9.6 | 12.2 | 0.00 | 0.02 | 0.02 | 53 | 1021.9 |
| 20260905123828 | 71 | 251 | 8.7 | 9.6 | 0.00 | 0.02 | 0.02 | 53 | 1022.2 |
| 20260905122853 | 72 | 232 | 5.2 | 7.0 | 0.00 | 0.02 | 0.02 | 54 | 1022.2 |
| 20260905121812 | 71 | 245 | 11.3 | 12.2 | 0.00 | 0.02 | 0.02 | 53 | 1022.1 |
| 20260905120645 | 71 | 241 | 10.4 | 13.9 | 0.00 | 0.02 | 0.02 | 52 | 1022.6 |
| 20260905115642 | 71 | 234 | 9.6 | 13.9 | 0.00 | 0.02 | 0.02 | 54 | 1022.1 |
| 20260905114701 | 71 | 269 | 9.6 | 11.3 | 0.00 | 0.02 | 0.02 | 54 | 1022.3 |
| 20260905113653 | 71 | 321 | 6.1 | 7.8 | 0.00 | 0.02 | 0.02 | 57 | 1022.1 |
| 20260905112618 | 70 | 330 | 5.2 | 6.1 | 0.00 | 0.02 | 0.02 | 58 | 1022.3 |
| 20260905111636 | 69 | 3 | 4.3 | 6.1 | 0.00 | 0.02 | 0.02 | 60 | 1022.5 |
| 20260905110701 | 68 | 290 | 7.8 | 7.8 | 0.00 | 0.02 | 0.02 | 63 | 1022.4 |
| 20260905105620 | 69 | 289 | 9.6 | 12.2 | 0.00 | 0.02 | 0.02 | 60 | 1022.3 |
| 20260905104644 | 67 | 296 | 6.1 | 7.0 | 0.00 | 0.02 | 0.02 | 66 | 1022.5 |
| 20260905103652 | 67 | 321 | 4.3 | 5.2 | 0.00 | 0.02 | 0.02 | 68 | 1022.4 |
| 20260905102612 | 67 | 312 | 4.3 | 7.8 | 0.00 | 0.02 | 0.02 | 70 | 1022.4 |
| 20260905101428 | 65 | 320 | 7.8 | 9.6 | 0.00 | 0.02 | 0.02 | 68 | 1022.6 |
| 20260905100420 | 66 | 275 | 8.7 | 9.6 | 0.00 | 0.02 | 0.02 | 67 | 1022.5 |
| 20260905095443 | 65 | 301 | 7.0 | 8.7 | 0.00 | 0.02 | 0.02 | 70 | 1022.6 |
| 20260905094435 | 63 | 341 | 2.6 | 2.6 | 0.00 | 0.02 | 0.02 | 75 | 1022.9 |
| 20260905093412 | 63 | 359 | 0.0 | 0.0 | 0.00 | 0.02 | 0.02 | 80 | 1022.8 |
| 20260905092333 | 62 | 254 | 3.5 | 4.3 | 0.00 | 0.02 | 0.02 | 76 | 1022.8 |
| 20260905091220 | 62 | 276 | 6.1 | 7.0 | 0.00 | 0.02 | 0.02 | 78 | 1023.5 |
| 20260905090033 | 61 | 292 | 6.1 | 7.0 | 0.01 | 0.02 | 0.02 | 80 | 1022.7 |
| 20260905085028 | 60 | 280 | 7.0 | 9.6 | 0.02 | 0.02 | 0.02 | 84 | 1023.2 |
| 20260905084113 | 61 | 337 | 1.7 | 2.6 | 0.02 | 0.02 | 0.02 | 83 | 1022.7 |
| 20260905083013 | 61 | 260 | 5.2 | 7.0 | 0.02 | 0.02 | 0.02 | 81 | 1023.5 |
| 20260905081812 | 60 | 247 | 4.3 | 6.1 | 0.02 | 0.02 | 0.02 | 84 | 1022.5 |
| 20260905080648 | 62 | 78 | 0.9 | 1.7 | 0.01 | 0.01 | 0.01 | 78 | 1021.4 |
| 20260905075653 | 63 | 121 | 1.7 | 1.7 | 0.00 | 0.00 | 0.00 | 72 | 1022.2 |
| 20260905074611 | 63 | 302 | 3.5 | 5.2 | 0.00 | 0.00 | 0.00 | 70 | 1022.6 |
| 20260905073428 | 62 | 348 | 3.5 | 4.3 | 0.00 | 0.00 | 0.00 | 74 | 1021.7 |
| 20260905072451 | 63 | 260 | 4.3 | 6.1 | 0.00 | 0.00 | 0.00 | 70 | 1022.5 |
| 20260905071412 | 63 | 270 | 5.2 | 6.1 | 0.00 | 0.00 | 0.00 | 70 | 1022.5 |
| 20260905070228 | 63 | 263 | 6.1 | 7.8 | 0.00 | 0.00 | 0.00 | 66 | 1021.1 |
| 20260905065252 | 65 | 293 | 8.7 | 13.9 | 0.00 | 0.00 | 0.00 | 62 | 1022.2 |
| 20260905064211 | 66 | 304 | 9.6 | 15.6 | 0.00 | 0.00 | 0.00 | 61 | 1021.6 |
| 20260905063028 | 66 | 308 | 9.6 | 9.6 | 0.00 | 0.00 | 0.00 | 61 | 1021.0 |
| 20260905062053 | 66 | 326 | 11.3 | 15.6 | 0.00 | 0.00 | 0.00 | 60 | 1020.9 |
| 20260905061013 | 67 | 279 | 7.8 | 11.3 | 0.00 | 0.00 | 0.00 | 60 | 1020.6 |
| 20260905055828 | 67 | 347 | 11.3 | 13.9 | 0.00 | 0.00 | 0.00 | 61 | 1020.7 |
| 20260905054851 | 67 | 352 | 11.3 | 14.8 | 0.00 | 0.00 | 0.00 | 66 | 1020.3 |
| 20260905053812 | 68 | 321 | 9.6 | 12.2 | 0.00 | 0.00 | 0.00 | 65 | 1020.3 |
| 20260905052627 | 68 | 312 | 7.0 | 9.6 | 0.00 | 0.00 | 0.00 | 63 | 1020.6 |
| 20260905051652 | 68 | 330 | 8.7 | 9.6 | 0.00 | 0.00 | 0.00 | 63 | 1019.9 |
| 20260905050611 | 68 | 314 | 13.0 | 15.6 | 0.00 | 0.00 | 0.00 | 64 | 1020.4 |
| 20260905045449 | 68 | 327 | 6.1 | 7.8 | 0.00 | 0.00 | 0.00 | 66 | 1019.1 |
| 20260905044452 | 68 | 22 | 7.0 | 7.8 | 0.00 | 0.00 | 0.00 | 67 | 1019.2 |
| 20260905043412 | 68 | 358 | 4.3 | 6.1 | 0.00 | 0.00 | 0.00 | 67 | 1019.1 |
| 20260905042228 | 68 | 5 | 3.5 | 4.3 | 0.00 | 0.00 | 0.00 | 69 | 1018.4 |
| 20260905041252 | 68 | 347 | 4.3 | 6.1 | 0.00 | 0.00 | 0.00 | 70 | 1018.0 |
| 20260905040212 | 69 | 321 | 6.1 | 8.7 | 0.00 | 0.00 | 0.00 | 68 | 1017.8 |
| 20260905035027 | 69 | 273 | 6.1 | 6.1 | 0.00 | 0.00 | 0.00 | 67 | 1017.5 |
| 20260905034053 | 69 | 286 | 7.8 | 8.7 | 0.00 | 0.00 | 0.00 | 66 | 1016.7 |
| 20260905033012 | 70 | 333 | 7.0 | 8.7 | 0.00 | 0.00 | 0.00 | 65 | 1016.8 |
| 20260905031848 | 70 | 291 | 6.1 | 7.0 | 0.00 | 0.00 | 0.00 | 66 | 1016.6 |
| 20260905030852 | 71 | 287 | 4.3 | 6.1 | 0.00 | 0.00 | 0.00 | 65 | 1016.7 |
| 20260905025812 | 70 | 327 | 6.1 | 7.0 | 0.00 | 0.00 | 0.00 | 67 | 1017.0 |
| 20260905024648 | 70 | 323 | 8.7 | 9.6 | 0.00 | 0.00 | 0.00 | 67 | 1016.8 |
| 20260905023651 | 68 | 304 | 6.1 | 7.0 | 0.00 | 0.00 | 0.00 | 71 | 1016.8 |
| 20260905022612 | 69 | 287 | 5.2 | 6.1 | 0.00 | 0.00 | 0.00 | 70 | 1016.6 |
| 20260905021428 | 68 | 342 | 1.7 | 1.7 | 0.00 | 0.00 | 0.00 | 69 | 1017.0 |
| 20260905020453 | 70 | 114 | 2.6 | 2.6 | 0.00 | 0.00 | 0.00 | 65 | 1017.0 |
| 20260905015412 | 67 | 253 | 3.5 | 4.3 | 0.00 | 0.00 | 0.00 | 71 | 1016.6 |
| 20260905014229 | 67 | 267 | 1.7 | 1.7 | 0.00 | 0.00 | 0.00 | 72 | 1016.8 |
| 20260905013252 | 66 | 258 | 1.7 | 1.7 | 0.00 | 0.00 | 0.00 | 73 | 1016.7 |
| 20260905012212 | 68 | 347 | 0.0 | 0.9 | 0.00 | 0.00 | 0.00 | 69 | 1016.4 |
| 20260905011028 | 67 | 113 | 0.0 | 0.9 | 0.00 | 0.00 | 0.00 | 70 | 1016.4 |
| 20260905010052 | 67 | 217 | 1.7 | 1.7 | 0.00 | 0.00 | 0.00 | 71 | 1016.4 |
| 20260905005012 | 66 | 266 | 1.7 | 1.7 | 0.00 | 0.00 | 0.00 | 72 | 1016.3 |
| 20260905003828 | 67 | 257 | 0.9 | 1.7 | 0.00 | 0.00 | 0.00 | 70 | 1016.6 |
| 20260905002852 | 66 | 253 | 0.9 | 1.7 | 0.00 | 0.00 | 0.00 | 71 | 1016.5 |
| 20260905001812 | 66 | 257 | 3.5 | 5.2 | 0.00 | 0.00 | 0.00 | 70 | 1016.1 |
| 20260905000628 | 66 | 345 | 0.0 | 0.9 | 0.00 | 0.00 | 0.00 | 71 | 1016.0 |
| 20260904235652 | 67 | 265 | 1.7 | 1.7 | 0.00 | 0.00 | 0.00 | 69 | 1016.1 |
| 20260904234612 | 67 | 117 | 0.9 | 0.9 | 0.00 | 0.00 | 0.00 | 70 | 1016.2 |
| 20260904233548 | 67 | 252 | 1.7 | 1.7 | 0.00 | 0.00 | 0.00 | 69 | 1016.1 |
| 20260904232512 | 65 | 234 | 3.5 | 4.3 | 0.00 | 0.00 | 0.00 | 71 | 1016.2 |
| 20260904231414 | 67 | 243 | 2.6 | 2.6 | 0.00 | 0.00 | 0.00 | 70 | 1016.2 |
| 20260904230434 | 66 | 246 | 3.5 | 4.3 | 0.00 | 0.00 | 0.00 | 70 | 1016.3 |
| 20260904225522 | 66 | 212 | 2.6 | 2.6 | 0.00 | 0.00 | 0.00 | 71 | 1016.3 |
| 20260904224421 | 66 | 342 | 0.0 | 0.0 | 0.00 | 0.00 | 0.00 | 70 | 1016.2 |
| 20260904223433 | 66 | 115 | 0.0 | 0.0 | 0.00 | 0.00 | 0.00 | 71 | 1016.2 |
| 20260904222452 | 65 | 354 | 0.9 | 0.9 | 0.00 | 0.00 | 0.00 | 72 | 1016.2 |
| 20260904221412 | 64 | 253 | 0.9 | 0.9 | 0.00 | 0.00 | 0.00 | 74 | 1016.2 |
| 20260904220437 | 66 | 120 | 0.9 | 0.9 | 0.00 | 0.00 | 0.00 | 71 | 1016.4 |
| 20260904215448 | 66 | 162 | 2.6 | 2.6 | 0.00 | 0.00 | 0.00 | 70 | 1016.1 |
| 20260904214452 | 66 | 260 | 1.7 | 1.7 | 0.00 | 0.00 | 0.00 | 73 | 1016.3 |
| 20260904213432 | 66 | 256 | 2.6 | 2.6 | 0.00 | 0.00 | 0.00 | 71 | 1016.3 |
| 20260904212228 | 67 | 223 | 1.7 | 1.7 | 0.00 | 0.00 | 0.00 | 69 | 1016.3 |